Regional Weather Roundup
Issued by NWS Green Bay, WI

Home | Current Version | Previous Version | Graphics & Text | Print | Product List | Glossary Off
Versions: 1 2 3 4 5 6 7 8 9 10 11 12 13 14 15 16 17 18 19 20 21 22 23 24 25 26 27 28 29 30 31 32 33 34 35 36 37 38 39 40 41 42 43 44 45 46 47 48 49 50

000
ASUS43 KGRB 290200
RWRGRB

NORTH-CENTRAL AND NORTHEAST WISCONSIN REGIONAL WEATHER ROUNDUP
NATIONAL WEATHER SERVICE GREEN BAY WI
900 PM CDT FRI APR 28 2017

WIZ005-009-010>012-018-019-290300-
NORTH CENTRAL WISCONSIN

CITY           SKY/WX    TMP DP  RH WIND       PRES   REMARKS
IRONWOOD       CLEAR     34  27  75 CALM      30.07R
MANITOWISH WTR NOT AVBL
ARBOR VITAE    NOT AVBL
EAGLE RIVER    NOT AVBL
LAND O LAKES   NOT AVBL
RHINELANDER    MOCLDY    39  28  64 CALM      30.01R
PHILLIPS       NOT AVBL
ANTIGO         NOT AVBL
TOMAHAWK       NOT AVBL
MERRILL        NOT AVBL
$$

WIZ013-073-290300-
NORTHEAST WISCONSIN

CITY           SKY/WX    TMP DP  RH WIND       PRES   REMARKS
IRON MOUNTAIN  CLOUDY    40  25  55 CALM      30.00R
MARINETTE      CLOUDY    44  31  60 N8        30.04R
$$

WIZ017-030-035>037-045-290300-
CENTRAL WISCONSIN

CITY           SKY/WX    TMP DP  RH WIND       PRES   REMARKS
MEDFORD        NOT AVBL
WAUSAU         CLOUDY    43  30  60 N3        30.01R
MOSINEE        MOCLDY    43  34  70 N3        30.02R
MARSHFIELD     CLOUDY    43  32  65 N6        30.00R
WISC RAPIDS    MOCLDY    45  33  63 N5        30.02R
STEVENS POINT  NOT AVBL
WAUPACA        NOT AVBL
SHAWANO        NOT AVBL
CLINTONVILLE   NOT AVBL
WAUTOMA        CLOUDY    45  42  89 NW3       30.01
$$

WIZ038-039-048-051-290300-
FOX VALLEY

CITY           SKY/WX    TMP DP  RH WIND       PRES   REMARKS
NWS GREEN BAY  CLOUDY    48  38  68 NW5       30.01R
APPLETON       MOCLDY    46  30  53 NW3       29.99R
OSHKOSH        CLOUDY    46  39  76 NW3       30.00R
FOND DU LAC    LGT RAIN  47  40  76 N5        30.01R
$$

WIZ022-050-052-290300-
EAST CENTRAL WISCONSIN

CITY           SKY/WX    TMP DP  RH WIND       PRES   REMARKS
EPHRAIM        NOT AVBL
WASHINGTON ISL NOT AVBL
STURGEON BAY   CLOUDY    42  37  82 CALM      30.04R
MANITOWOC      NOT AVBL
SHEBOYGAN      LGT RAIN  42  40  92 E3        30.02R
$$

LMZ563-521-522-541>543-290300-
LAKESHORE

STATION/POSITION TIME  TEMP    WIND        PRES    VSBY  WAVE
                       AIR SEA DIR/SP/G                  HT/PER
                 (UTC) (F)     (DEG/KT/KT) (MB)    (MI)  (FT/S)
SHEBOYGAN LKSHOR 0100   40     130/  2/  2 1015.8R
KEWAUNEE LKSHORE 0130   42     180/  7/  7 1015.3R
NORTHPORT PIER   0140   40      CALM  /  3 1016.3R
N MID LAKE BUOY  0050   38 37  170/  2/  2 1016.3R         2/ 4
MENOMINEE LKSHOR 0130   45     330/  8/ 10 1015.2R
$$



USA.gov is the U.S. government's official web portal to all federal, state and local government web resources and services.